Cloud_Cover
98 76 44 17 88 100 100 100 100 100 99 100 96 100 100 100 100 100 100 100 100 100
100 62 5 5 11 100 100 100 100 100 100 100 100 100 100 100 100 100 100 100 100 100
100 30 5 5 11 93 100 100 100 100 98 92 100 100 100 100 100 100 100 100 100 100
100 94 5 5 5 92 98 100 100 100 94 100 99 100 100 100 100 100 100 100 100 100
95 67 5 5 69 82 100 95 100 100 100 100 100 100 100 100 100 100 100 100 100 100
79 5 5 5 61 87 100 100 100 100 100 100 100 100 100 100 100 100 100 100 100 100
5 5 5 5 24 89 91 99 100 100 100 100 100 100 100 100 100 100 100 100 100 100
5 4 5 5 5 71 97 100 100 100 100 100 100 100 100 100 100 100 100 100 100 100
0 3 5 5 23 59 76 100 100 96 100 100 100 100 100 92 100 100 100 100 100 100
2 5 5 5 11 74 100 100 100 100 100 100 100 100 100 100 98 100 100 100 100 100
2 5 5 5 38 64 99 100 100 99 100 100 100 100 100 100 100 100 93 100 100 100
5 5 5 40 68 88 100 100 100 99 100 100 100 100 100 95 99 100 100 86 63 100
5 5 5 5 75 88 100 100 100 100 100 100 100 100 100 100 100 90 98 86 42 67
5 4 5 5 5 5 40 32 91 100 100 100 100 100 100 100 100 94 100 100 94 97